GEC8260 SBEG-SEQM

Flight info

Callsign GEC8260
Flight time 2h 51m
Altitude 40000
Route VUNEP UM665 IQT UM776 ENVIG
Aircraft MD11/H-SDE1E2E3FGHIJ2J3J4J5M1RWXY/LB1D1

Departure

Time 2026-04-17 10:13
Airport Eduardo Gomes International Airport (SBEG)

Arrival

Time 2026-04-17 13:04
Airport Mariscal Sucre International Airport (SEQM)
Time Latitude Longitude Altitude Speed Heading
2026-04-17 09:50 -3.03143 -60.03998 279 ft 0 kts 346°
2026-04-17 10:02 -3.03144 -60.03998 279 ft 2 kts 346°
2026-04-17 10:03 -3.03169 -60.03993 279 ft 3 kts 348°
2026-04-17 10:03 -3.03190 -60.03988 281 ft 4 kts 322°
2026-04-17 10:03 -3.03201 -60.03975 284 ft 4 kts 268°
2026-04-17 10:03 -3.03196 -60.03951 282 ft 4 kts 253°
2026-04-17 10:04 -3.03195 -60.03945 280 ft 0 kts 254°
2026-04-17 10:07 -3.03205 -60.03980 286 ft 10 kts 254°
2026-04-17 10:07 -3.03231 -60.04075 279 ft 17 kts 254°
2026-04-17 10:07 -3.03263 -60.04195 283 ft 18 kts 255°
2026-04-17 10:08 -3.03295 -60.04310 279 ft 17 kts 254°
2026-04-17 10:08 -3.03327 -60.04422 279 ft 16 kts 255°
2026-04-17 10:08 -3.03345 -60.04532 279 ft 16 kts 261°
2026-04-17 10:08 -3.03357 -60.04647 279 ft 17 kts 262°
2026-04-17 10:09 -3.03388 -60.04769 279 ft 18 kts 246°
2026-04-17 10:09 -3.03468 -60.04873 279 ft 20 kts 224°
2026-04-17 10:09 -3.03563 -60.04974 279 ft 20 kts 240°
2026-04-17 10:09 -3.03608 -60.05110 282 ft 21 kts 255°
2026-04-17 10:10 -3.03646 -60.05248 279 ft 21 kts 255°
2026-04-17 10:10 -3.03676 -60.05384 279 ft 20 kts 259°
2026-04-17 10:10 -3.03691 -60.05515 279 ft 18 kts 269°
2026-04-17 10:11 -3.03690 -60.05764 279 ft 19 kts 269°
2026-04-17 10:11 -3.03690 -60.05912 279 ft 24 kts 270°
2026-04-17 10:11 -3.03691 -60.06076 279 ft 23 kts 267°
2026-04-17 10:11 -3.03770 -60.06171 279 ft 17 kts 185°
2026-04-17 10:12 -3.03848 -60.06167 280 ft 2 kts 153°
2026-04-17 10:12 -3.03852 -60.06154 282 ft 4 kts 107°
2026-04-17 10:12 -3.03856 -60.06111 280 ft 0 kts 91°
2026-04-17 10:12 -3.03857 -60.06063 280 ft 34 kts 91°
2026-04-17 10:13 -3.03859 -60.05404 279 ft 150 kts 90°
2026-04-17 10:13 -3.03862 -60.04234 1173 ft 164 kts 90°
2026-04-17 10:13 -3.03855 -60.03107 2665 ft 163 kts 88°
2026-04-17 10:13 -3.03852 -60.01970 3813 ft 172 kts 89°
2026-04-17 10:14 -3.04020 -60.00597 4141 ft 230 kts 104°
2026-04-17 10:14 -3.04861 -59.99077 4648 ft 265 kts 131°
2026-04-17 10:14 -3.06382 -59.98062 5964 ft 273 kts 157°
2026-04-17 10:14 -3.08282 -59.97829 7367 ft 283 kts 186°
2026-04-17 10:15 -3.10105 -59.98576 8750 ft 290 kts 217°
2026-04-17 10:15 -3.11381 -60.00146 10041 ft 298 kts 242°
2026-04-17 10:15 -3.12229 -60.02184 10388 ft 338 kts 251°
2026-04-17 10:15 -3.12932 -60.04563 10640 ft 372 kts 254°
2026-04-17 10:16 -3.13619 -60.07084 11563 ft 378 kts 255°
2026-04-17 10:16 -3.14335 -60.09631 12571 ft 383 kts 254°
2026-04-17 10:16 -3.15082 -60.12165 13565 ft 387 kts 254°
2026-04-17 10:16 -3.15670 -60.14813 14402 ft 392 kts 262°
2026-04-17 10:17 -3.15995 -60.17537 15265 ft 397 kts 265°
2026-04-17 10:17 -3.16211 -60.20305 16150 ft 402 kts 266°
2026-04-17 10:17 -3.16397 -60.23114 17021 ft 407 kts 266°
2026-04-17 10:17 -3.16585 -60.25959 17885 ft 412 kts 266°
2026-04-17 10:18 -3.16785 -60.28836 18639 ft 418 kts 265°
2026-04-17 10:18 -3.16999 -60.31751 19360 ft 423 kts 265°
2026-04-17 10:18 -3.17223 -60.34707 20063 ft 428 kts 265°
2026-04-17 10:18 -3.17453 -60.37695 20747 ft 433 kts 265°
2026-04-17 10:19 -3.17686 -60.40673 21442 ft 438 kts 265°
2026-04-17 10:19 -3.17925 -60.43730 22151 ft 443 kts 265°
2026-04-17 10:19 -3.18167 -60.46822 22868 ft 449 kts 265°
2026-04-17 10:19 -3.18412 -60.49953 23562 ft 454 kts 265°
2026-04-17 10:20 -3.18616 -60.53120 24178 ft 459 kts 267°
2026-04-17 10:20 -3.18714 -60.56326 24822 ft 463 kts 268°
2026-04-17 10:20 -3.18757 -60.59561 25463 ft 467 kts 269°
2026-04-17 10:20 -3.18775 -60.62822 26095 ft 471 kts 269°
2026-04-17 10:21 -3.18786 -60.66076 26728 ft 476 kts 269°
2026-04-17 10:21 -3.18798 -60.69399 27372 ft 480 kts 269°
2026-04-17 10:21 -3.18815 -60.72755 28017 ft 485 kts 269°
2026-04-17 10:21 -3.18838 -60.76142 28666 ft 489 kts 268°
2026-04-17 10:22 -3.18871 -60.79562 29381 ft 492 kts 268°
2026-04-17 10:22 -3.18905 -60.82999 29886 ft 497 kts 268°
2026-04-17 10:22 -3.18934 -60.86469 30143 ft 500 kts 268°
2026-04-17 10:22 -3.18961 -60.89953 30280 ft 502 kts 268°
2026-04-17 10:23 -3.18987 -60.93401 30391 ft 503 kts 268°
2026-04-17 10:23 -3.19014 -60.96904 30513 ft 504 kts 268°
2026-04-17 10:23 -3.19042 -61.00410 30619 ft 504 kts 268°
2026-04-17 10:23 -3.19071 -61.03927 30843 ft 505 kts 268°
2026-04-17 10:24 -3.19099 -61.07433 31359 ft 504 kts 268°
2026-04-17 10:24 -3.19128 -61.10930 31867 ft 502 kts 268°
2026-04-17 10:24 -3.19156 -61.14419 32375 ft 500 kts 268°
2026-04-17 10:24 -3.19185 -61.17892 32865 ft 499 kts 268°
2026-04-17 10:25 -3.19213 -61.21308 33329 ft 497 kts 268°
2026-04-17 10:25 -3.19241 -61.24766 33817 ft 496 kts 268°
2026-04-17 10:25 -3.19268 -61.28204 34203 ft 494 kts 268°
2026-04-17 10:25 -3.19296 -61.31646 34583 ft 493 kts 268°
2026-04-17 10:26 -3.19324 -61.35071 34962 ft 492 kts 268°
2026-04-17 10:26 -3.19350 -61.38484 35370 ft 489 kts 268°
2026-04-17 10:26 -3.19376 -61.41879 35740 ft 488 kts 268°
2026-04-17 10:26 -3.19393 -61.44125 35971 ft 487 kts 268°
2026-04-17 10:27 -3.19419 -61.47515 36329 ft 486 kts 268°
2026-04-17 10:27 -3.19454 -61.51983 36793 ft 484 kts 267°
2026-04-17 10:27 -3.19480 -61.55348 37123 ft 483 kts 267°
2026-04-17 10:27 -3.19506 -61.58710 37458 ft 482 kts 267°
2026-04-17 10:28 -3.19524 -61.60972 37682 ft 482 kts 267°
2026-04-17 10:28 -3.19549 -61.64275 37998 ft 481 kts 267°
2026-04-17 10:28 -3.19575 -61.67614 38313 ft 480 kts 267°
2026-04-17 10:28 -3.19601 -61.70946 38605 ft 479 kts 267°
2026-04-17 10:29 -3.19626 -61.74280 38856 ft 478 kts 267°
2026-04-17 10:29 -3.19651 -61.77601 39103 ft 477 kts 267°
2026-04-17 10:29 -3.19684 -61.81992 39427 ft 476 kts 267°
2026-04-17 10:29 -3.19701 -61.84230 39593 ft 476 kts 267°
2026-04-17 10:30 -3.19726 -61.87534 39793 ft 476 kts 267°
2026-04-17 10:30 -3.19775 -61.94087 39855 ft 473 kts 268°
2026-04-17 10:31 -3.19824 -62.00680 39864 ft 474 kts 268°
2026-04-17 10:31 -3.19873 -62.07268 39865 ft 474 kts 268°
2026-04-17 10:32 -3.19960 -62.13863 39865 ft 473 kts 266°
2026-04-17 10:32 -3.20317 -62.20391 39865 ft 473 kts 264°
2026-04-17 10:33 -3.20767 -62.26953 39865 ft 472 kts 264°
2026-04-17 10:33 -3.21244 -62.33495 39867 ft 471 kts 263°
2026-04-17 10:34 -3.21740 -62.40029 39869 ft 471 kts 263°
2026-04-17 10:34 -3.22230 -62.46521 39870 ft 471 kts 263°
2026-04-17 10:35 -3.22720 -62.53060 39869 ft 471 kts 264°
2026-04-17 10:35 -3.23208 -62.59590 39870 ft 470 kts 264°
2026-04-17 10:36 -3.23695 -62.66118 39873 ft 470 kts 264°
2026-04-17 10:36 -3.24179 -62.72603 39873 ft 470 kts 264°
2026-04-17 10:37 -3.24665 -62.79128 39872 ft 470 kts 264°
2026-04-17 10:37 -3.25151 -62.85656 39872 ft 471 kts 264°
2026-04-17 10:38 -3.25638 -62.92195 39874 ft 471 kts 264°
2026-04-17 10:38 -3.26120 -62.98693 39873 ft 471 kts 264°
2026-04-17 10:39 -3.26606 -63.05231 39873 ft 471 kts 264°
2026-04-17 10:39 -3.27091 -63.11768 39874 ft 471 kts 264°
2026-04-17 10:40 -3.27574 -63.18317 39873 ft 472 kts 264°
2026-04-17 10:40 -3.28055 -63.24832 39873 ft 473 kts 264°
2026-04-17 10:41 -3.28540 -63.31390 39873 ft 473 kts 264°
2026-04-17 10:41 -3.29025 -63.37943 39873 ft 473 kts 264°
2026-04-17 10:42 -3.29509 -63.44508 39879 ft 473 kts 264°
2026-04-17 10:42 -3.29993 -63.51069 39876 ft 473 kts 264°
2026-04-17 10:43 -3.30474 -63.57592 39875 ft 473 kts 264°
2026-04-17 10:43 -3.30958 -63.64161 39878 ft 473 kts 264°
2026-04-17 10:44 -3.31441 -63.70729 39878 ft 473 kts 264°
2026-04-17 10:44 -3.31916 -63.77299 39879 ft 473 kts 264°
2026-04-17 10:45 -3.32385 -63.83829 39875 ft 474 kts 264°
2026-04-17 10:45 -3.32856 -63.90404 39873 ft 474 kts 264°
2026-04-17 10:46 -3.33328 -63.96979 39873 ft 474 kts 264°
2026-04-17 10:46 -3.33800 -64.03551 39874 ft 474 kts 264°
2026-04-17 10:47 -3.34269 -64.10091 39876 ft 475 kts 264°
2026-04-17 10:47 -3.34741 -64.16683 39876 ft 475 kts 264°
2026-04-17 10:48 -3.35212 -64.23272 39875 ft 475 kts 264°
2026-04-17 10:48 -3.35684 -64.29869 39873 ft 475 kts 264°
2026-04-17 10:49 -3.36155 -64.36464 39879 ft 475 kts 264°
2026-04-17 10:49 -3.36622 -64.43020 39873 ft 476 kts 264°
2026-04-17 10:50 -3.37093 -64.49624 39873 ft 476 kts 264°
2026-04-17 10:50 -3.37563 -64.56229 39873 ft 476 kts 264°
2026-04-17 10:51 -3.38030 -64.62834 39870 ft 476 kts 264°
2026-04-17 10:51 -3.38496 -64.69398 39856 ft 476 kts 264°
2026-04-17 10:52 -3.39266 -64.75959 39857 ft 475 kts 259°
2026-04-17 10:52 -3.40308 -64.82476 39858 ft 474 kts 259°
2026-04-17 10:53 -3.41366 -64.88991 39860 ft 474 kts 259°
2026-04-17 10:53 -3.42392 -64.95472 39863 ft 474 kts 259°
2026-04-17 10:54 -3.43412 -65.01996 39866 ft 475 kts 259°
2026-04-17 10:54 -3.44433 -65.08539 39870 ft 476 kts 259°
2026-04-17 10:55 -3.45447 -65.15042 39868 ft 476 kts 259°
2026-04-17 10:55 -3.46468 -65.21582 39876 ft 476 kts 259°
2026-04-17 10:56 -3.47488 -65.28123 39869 ft 476 kts 259°
2026-04-17 10:56 -3.48508 -65.34663 39869 ft 475 kts 259°
2026-04-17 10:57 -3.49522 -65.41152 39870 ft 475 kts 259°
2026-04-17 10:57 -3.50544 -65.47680 39871 ft 475 kts 259°
2026-04-17 10:58 -3.51564 -65.54202 39870 ft 475 kts 259°
2026-04-17 10:58 -3.52586 -65.60731 39870 ft 475 kts 259°
2026-04-17 10:59 -3.53610 -65.67247 39871 ft 473 kts 259°
2026-04-17 10:59 -3.54624 -65.73718 39870 ft 473 kts 259°
2026-04-17 11:00 -3.55633 -65.80223 39867 ft 473 kts 259°
2026-04-17 11:00 -3.56646 -65.86731 39870 ft 473 kts 259°
2026-04-17 11:01 -3.57662 -65.93243 39865 ft 473 kts 259°
2026-04-17 11:01 -3.58671 -65.99695 39867 ft 472 kts 259°
2026-04-17 11:02 -3.59681 -66.06179 39867 ft 471 kts 259°
2026-04-17 11:02 -3.60691 -66.12664 39867 ft 471 kts 259°
2026-04-17 11:03 -3.61702 -66.19149 39868 ft 471 kts 259°
2026-04-17 11:03 -3.62704 -66.25587 39875 ft 471 kts 260°
2026-04-17 11:04 -3.63714 -66.32076 39870 ft 472 kts 260°
2026-04-17 11:04 -3.64726 -66.38575 39870 ft 472 kts 260°
2026-04-17 11:05 -3.65736 -66.45074 39870 ft 472 kts 260°
2026-04-17 11:05 -3.66739 -66.51527 39870 ft 472 kts 260°
2026-04-17 11:06 -3.67748 -66.58022 39871 ft 472 kts 260°
2026-04-17 11:06 -3.68755 -66.64517 39870 ft 472 kts 260°
2026-04-17 11:07 -3.69763 -66.71020 39873 ft 472 kts 260°
2026-04-17 11:07 -3.70768 -66.77477 39873 ft 472 kts 260°
2026-04-17 11:08 -3.71779 -66.83971 39873 ft 472 kts 260°
2026-04-17 11:08 -3.72788 -66.90471 39871 ft 473 kts 260°
2026-04-17 11:09 -3.73806 -66.96994 39870 ft 474 kts 260°
2026-04-17 11:09 -3.74806 -67.03476 39873 ft 474 kts 260°
2026-04-17 11:10 -3.76316 -67.13264 39875 ft 474 kts 260°
2026-04-17 11:10 -3.77325 -67.19790 39870 ft 474 kts 260°
2026-04-17 11:11 -3.78334 -67.26313 39874 ft 473 kts 260°
2026-04-17 11:11 -3.79341 -67.32766 39870 ft 472 kts 260°
2026-04-17 11:12 -3.80339 -67.39267 39872 ft 473 kts 260°
2026-04-17 11:12 -3.81337 -67.45771 39872 ft 473 kts 260°
2026-04-17 11:13 -3.82338 -67.52271 39873 ft 473 kts 260°
2026-04-17 11:13 -3.83334 -67.58731 39874 ft 472 kts 260°
2026-04-17 11:14 -3.84334 -67.65225 39875 ft 472 kts 260°
2026-04-17 11:14 -3.85335 -67.71721 39875 ft 472 kts 260°
2026-04-17 11:15 -3.86336 -67.78224 39875 ft 472 kts 260°
2026-04-17 11:15 -3.87335 -67.84718 39875 ft 472 kts 260°
2026-04-17 11:16 -3.88327 -67.91172 39872 ft 472 kts 260°
2026-04-17 11:16 -3.89327 -67.97674 39873 ft 472 kts 260°
2026-04-17 11:17 -3.90325 -68.04171 39877 ft 472 kts 260°
2026-04-17 11:17 -3.91322 -68.10669 39875 ft 472 kts 260°
2026-04-17 11:18 -3.92319 -68.17172 39875 ft 472 kts 260°
2026-04-17 11:18 -3.93306 -68.23629 39878 ft 472 kts 260°
2026-04-17 11:19 -3.94300 -68.30118 39879 ft 472 kts 260°
2026-04-17 11:19 -3.95295 -68.36613 39878 ft 472 kts 260°
2026-04-17 11:20 -3.96288 -68.43100 39881 ft 471 kts 260°
2026-04-17 11:20 -3.97281 -68.49584 39881 ft 471 kts 260°
2026-04-17 11:21 -3.98265 -68.56020 39881 ft 471 kts 260°
2026-04-17 11:21 -3.99256 -68.62502 39881 ft 470 kts 260°
2026-04-17 11:22 -4.00245 -68.68974 39882 ft 470 kts 260°
2026-04-17 11:22 -4.01232 -68.75447 39881 ft 470 kts 260°
2026-04-17 11:23 -4.02220 -68.81924 39882 ft 470 kts 260°
2026-04-17 11:23 -4.03203 -68.88361 39889 ft 471 kts 260°
2026-04-17 11:24 -4.04201 -68.94851 39884 ft 471 kts 260°
2026-04-17 11:24 -4.05187 -69.01346 39884 ft 472 kts 260°
2026-04-17 11:25 -4.06172 -69.07841 39884 ft 472 kts 260°
2026-04-17 11:25 -4.07153 -69.14290 39884 ft 472 kts 260°
2026-04-17 11:26 -4.08142 -69.20786 39882 ft 472 kts 261°
2026-04-17 11:26 -4.09134 -69.27283 39883 ft 472 kts 261°
2026-04-17 11:27 -4.10121 -69.33792 39886 ft 472 kts 261°
2026-04-17 11:27 -4.11109 -69.40302 39886 ft 472 kts 261°
2026-04-17 11:28 -4.12089 -69.46761 39886 ft 473 kts 261°
2026-04-17 11:28 -4.13086 -69.53261 39887 ft 473 kts 260°
2026-04-17 11:29 -4.14098 -69.59763 39885 ft 472 kts 261°
2026-04-17 11:29 -4.15017 -69.66280 39878 ft 472 kts 262°
2026-04-17 11:30 -4.15890 -69.72755 39872 ft 472 kts 262°
2026-04-17 11:30 -4.16770 -69.79280 39864 ft 472 kts 262°
2026-04-17 11:31 -4.17654 -69.85794 39856 ft 472 kts 261°
2026-04-17 11:31 -4.18505 -69.92310 39851 ft 472 kts 265°
2026-04-17 11:32 -4.18269 -69.98832 39856 ft 473 kts 275°
2026-04-17 11:32 -4.17425 -70.05363 39859 ft 473 kts 277°
2026-04-17 11:33 -4.16580 -70.11898 39866 ft 473 kts 276°
2026-04-17 11:33 -4.15806 -70.18444 39874 ft 473 kts 276°
2026-04-17 11:34 -4.15065 -70.24945 39883 ft 473 kts 275°
2026-04-17 11:34 -4.14321 -70.31494 39890 ft 473 kts 275°
2026-04-17 11:35 -4.13574 -70.38043 39888 ft 473 kts 275°
2026-04-17 11:35 -4.12826 -70.44583 39890 ft 473 kts 275°
2026-04-17 11:36 -4.12076 -70.51130 39888 ft 473 kts 275°
2026-04-17 11:36 -4.11331 -70.57635 39884 ft 473 kts 275°
2026-04-17 11:37 -4.10580 -70.64187 39889 ft 473 kts 275°
2026-04-17 11:37 -4.09829 -70.70735 39888 ft 473 kts 275°
2026-04-17 11:38 -4.09077 -70.77282 39889 ft 473 kts 275°
2026-04-17 11:38 -4.08322 -70.83832 39890 ft 473 kts 275°
2026-04-17 11:39 -4.07573 -70.90338 39891 ft 474 kts 275°
2026-04-17 11:39 -4.06828 -70.96904 39890 ft 474 kts 276°
2026-04-17 11:40 -4.06072 -71.03464 39889 ft 474 kts 276°
2026-04-17 11:40 -4.05309 -71.10022 39889 ft 474 kts 276°
2026-04-17 11:41 -4.04549 -71.16589 39896 ft 474 kts 276°
2026-04-17 11:41 -4.03797 -71.23102 39892 ft 474 kts 276°
2026-04-17 11:42 -4.03040 -71.29663 39887 ft 474 kts 276°
2026-04-17 11:42 -4.02282 -71.36223 39887 ft 474 kts 276°
2026-04-17 11:43 -4.01523 -71.42791 39891 ft 474 kts 276°
2026-04-17 11:43 -4.00769 -71.49303 39890 ft 474 kts 276°
2026-04-17 11:44 -4.00009 -71.55865 39893 ft 474 kts 276°
2026-04-17 11:44 -3.99254 -71.62426 39886 ft 474 kts 275°
2026-04-17 11:45 -3.98492 -71.68973 39887 ft 473 kts 276°
2026-04-17 11:45 -3.97727 -71.75525 39887 ft 473 kts 276°
2026-04-17 11:46 -3.96970 -71.82022 39886 ft 473 kts 276°
2026-04-17 11:46 -3.96209 -71.88573 39888 ft 473 kts 276°
2026-04-17 11:47 -3.95448 -71.95122 39898 ft 473 kts 275°
2026-04-17 11:47 -3.94687 -72.01664 39894 ft 473 kts 275°
2026-04-17 11:48 -3.93930 -72.08164 39894 ft 473 kts 275°
2026-04-17 11:48 -3.93168 -72.14704 39895 ft 473 kts 276°
2026-04-17 11:49 -3.92405 -72.21245 39882 ft 473 kts 275°
2026-04-17 11:49 -3.91642 -72.27785 39921 ft 474 kts 275°
2026-04-17 11:50 -3.91261 -72.31049 40408 ft 472 kts 275°
2026-04-17 11:50 -3.90885 -72.34268 40782 ft 471 kts 275°
2026-04-17 11:50 -3.90505 -72.37522 41157 ft 470 kts 275°
2026-04-17 11:50 -3.90125 -72.40766 41534 ft 468 kts 275°
2026-04-17 11:51 -3.89746 -72.44007 41807 ft 469 kts 275°
2026-04-17 11:51 -3.89366 -72.47243 41870 ft 467 kts 275°
2026-04-17 11:51 -3.88605 -72.53697 41883 ft 467 kts 276°
2026-04-17 11:52 -3.87847 -72.60105 41887 ft 466 kts 276°
2026-04-17 11:52 -3.87084 -72.66555 41887 ft 467 kts 276°
2026-04-17 11:53 -3.86320 -72.73017 41887 ft 467 kts 276°
2026-04-17 11:53 -3.85556 -72.79475 41885 ft 467 kts 276°
2026-04-17 11:54 -3.84791 -72.85933 41884 ft 467 kts 276°
2026-04-17 11:54 -3.84031 -72.92347 41884 ft 467 kts 276°
2026-04-17 11:55 -3.83266 -72.98799 41884 ft 467 kts 276°
2026-04-17 11:55 -3.82500 -73.05254 41883 ft 467 kts 276°
2026-04-17 11:56 -3.81733 -73.11709 41885 ft 467 kts 276°
2026-04-17 11:56 -3.80972 -73.18120 41859 ft 467 kts 276°
2026-04-17 11:57 -3.80204 -73.24574 41858 ft 467 kts 276°
2026-04-17 11:57 -3.79195 -73.30993 41853 ft 468 kts 285°
2026-04-17 11:58 -3.78034 -73.34035 41853 ft 470 kts 296°
2026-04-17 11:58 -3.76368 -73.36851 41862 ft 471 kts 303°
2026-04-17 11:58 -3.72512 -73.42114 41864 ft 472 kts 306°
2026-04-17 11:59 -3.68646 -73.47425 41863 ft 472 kts 304°
2026-04-17 11:59 -3.64907 -73.52829 41869 ft 473 kts 303°
2026-04-17 12:00 -3.61192 -73.58283 41884 ft 475 kts 303°
2026-04-17 12:00 -3.57460 -73.63747 41889 ft 475 kts 303°
2026-04-17 12:01 -3.53757 -73.69170 41887 ft 476 kts 303°
2026-04-17 12:01 -3.50009 -73.74649 41884 ft 477 kts 304°
2026-04-17 12:02 -3.46261 -73.80125 41886 ft 477 kts 304°
2026-04-17 12:02 -3.42513 -73.85604 41886 ft 477 kts 303°
2026-04-17 12:03 -3.38792 -73.91045 41886 ft 477 kts 303°
2026-04-17 12:03 -3.35045 -73.96522 41886 ft 477 kts 304°
2026-04-17 12:04 -3.31299 -74.01997 41894 ft 477 kts 303°
2026-04-17 12:04 -3.27556 -74.07485 41888 ft 477 kts 303°
2026-04-17 12:05 -3.23806 -74.12967 41888 ft 477 kts 304°
2026-04-17 12:05 -3.20069 -74.18413 41888 ft 477 kts 304°
2026-04-17 12:06 -3.16314 -74.23889 41893 ft 477 kts 304°
2026-04-17 12:06 -3.12557 -74.29372 41894 ft 477 kts 304°
2026-04-17 12:07 -3.08802 -74.34854 41894 ft 477 kts 304°
2026-04-17 12:07 -3.05072 -74.40300 41900 ft 478 kts 304°
2026-04-17 12:08 -3.01309 -74.45794 41902 ft 478 kts 304°
2026-04-17 12:08 -2.97548 -74.51283 41899 ft 479 kts 304°
2026-04-17 12:09 -2.93785 -74.56775 41894 ft 478 kts 304°
2026-04-17 12:09 -2.90026 -74.62260 41890 ft 478 kts 304°
2026-04-17 12:10 -2.86294 -74.67705 41902 ft 477 kts 304°
2026-04-17 12:10 -2.82540 -74.73181 41902 ft 477 kts 304°
2026-04-17 12:11 -2.78786 -74.78657 41900 ft 477 kts 304°
2026-04-17 12:12 -2.73174 -74.86841 41900 ft 478 kts 304°
2026-04-17 12:12 -2.69418 -74.92316 41899 ft 478 kts 304°
2026-04-17 12:13 -2.65659 -74.97793 41893 ft 477 kts 304°
2026-04-17 12:13 -2.61902 -75.03269 41898 ft 477 kts 304°
2026-04-17 12:14 -2.58170 -75.08709 41906 ft 477 kts 304°
2026-04-17 12:14 -2.54425 -75.14167 41905 ft 475 kts 304°
2026-04-17 12:15 -2.50691 -75.19608 41908 ft 474 kts 304°
2026-04-17 12:15 -2.46954 -75.25052 41908 ft 474 kts 304°
2026-04-17 12:16 -2.43218 -75.30495 41910 ft 474 kts 304°
2026-04-17 12:16 -2.39512 -75.35893 41911 ft 474 kts 304°
2026-04-17 12:17 -2.35775 -75.41335 41911 ft 474 kts 304°
2026-04-17 12:17 -2.32041 -75.46772 41911 ft 475 kts 304°
2026-04-17 12:18 -2.28300 -75.52220 41914 ft 475 kts 304°
2026-04-17 12:18 -2.24588 -75.57625 41914 ft 475 kts 304°
2026-04-17 12:19 -2.20849 -75.63070 41912 ft 475 kts 304°
2026-04-17 12:19 -2.17108 -75.68516 41914 ft 475 kts 304°
2026-04-17 12:20 -2.13366 -75.73963 41914 ft 475 kts 304°
2026-04-17 12:20 -2.09626 -75.79406 41916 ft 475 kts 304°
2026-04-17 12:21 -2.05911 -75.84813 41914 ft 475 kts 304°
2026-04-17 12:21 -2.02170 -75.90257 41914 ft 475 kts 304°
2026-04-17 12:22 -1.98337 -75.95647 41916 ft 475 kts 307°
2026-04-17 12:22 -1.94342 -76.00909 41917 ft 475 kts 307°
2026-04-17 12:23 -1.90351 -76.06118 41915 ft 475 kts 307°
2026-04-17 12:23 -1.86341 -76.11375 41916 ft 475 kts 307°
2026-04-17 12:24 -1.82346 -76.16629 41916 ft 475 kts 307°
2026-04-17 12:24 -1.78356 -76.21886 41915 ft 474 kts 307°
2026-04-17 12:25 -1.74387 -76.27102 41916 ft 474 kts 307°
2026-04-17 12:25 -1.70393 -76.32350 41917 ft 474 kts 307°
2026-04-17 12:26 -1.66400 -76.37598 41919 ft 474 kts 307°
2026-04-17 12:26 -1.62404 -76.42851 41919 ft 474 kts 307°
2026-04-17 12:27 -1.58437 -76.48066 41917 ft 474 kts 307°
2026-04-17 12:27 -1.54444 -76.53316 41917 ft 475 kts 307°
2026-04-17 12:28 -1.50474 -76.58533 41920 ft 475 kts 307°
2026-04-17 12:28 -1.46449 -76.63823 41924 ft 474 kts 307°
2026-04-17 12:29 -1.42455 -76.69071 41928 ft 474 kts 307°
2026-04-17 12:29 -1.38490 -76.74281 41927 ft 474 kts 307°
2026-04-17 12:30 -1.34526 -76.79490 41934 ft 474 kts 307°
2026-04-17 12:30 -1.30531 -76.84739 41941 ft 474 kts 307°
2026-04-17 12:31 -1.26538 -76.89986 41944 ft 474 kts 307°
2026-04-17 12:31 -1.22541 -76.95237 41947 ft 474 kts 307°
2026-04-17 12:32 -1.18573 -77.00450 41951 ft 474 kts 307°
2026-04-17 12:32 -1.14577 -77.05699 41952 ft 474 kts 307°
2026-04-17 12:33 -1.10585 -77.10944 41960 ft 474 kts 307°
2026-04-17 12:33 -1.06592 -77.16189 41960 ft 474 kts 307°
2026-04-17 12:34 -1.02604 -77.21427 41962 ft 473 kts 307°
2026-04-17 12:34 -0.98649 -77.26628 41979 ft 474 kts 307°
2026-04-17 12:35 -0.94660 -77.31872 41979 ft 474 kts 308°
2026-04-17 12:35 -0.90663 -77.37114 41979 ft 474 kts 308°
2026-04-17 12:37 -0.74673 -77.58105 40268 ft 478 kts 307°
2026-04-17 12:37 -0.72665 -77.60750 39804 ft 477 kts 307°
2026-04-17 12:38 -0.70737 -77.63442 39274 ft 475 kts 305°
2026-04-17 12:38 -0.68908 -77.66178 38706 ft 472 kts 304°
2026-04-17 12:38 -0.67152 -77.68883 38151 ft 468 kts 304°
2026-04-17 12:38 -0.65310 -77.71530 37998 ft 464 kts 307°
2026-04-17 12:39 -0.63350 -77.74093 37845 ft 463 kts 309°
2026-04-17 12:39 -0.61358 -77.76612 37690 ft 462 kts 309°
2026-04-17 12:39 -0.59365 -77.79124 37571 ft 461 kts 309°
2026-04-17 12:39 -0.57386 -77.81640 37468 ft 460 kts 309°
2026-04-17 12:40 -0.55422 -77.84161 37292 ft 459 kts 308°
2026-04-17 12:40 -0.51533 -77.89198 37155 ft 457 kts 308°
2026-04-17 12:41 -0.47692 -77.94195 37028 ft 456 kts 308°
2026-04-17 12:41 -0.43836 -77.99218 36976 ft 454 kts 308°
2026-04-17 12:42 -0.39995 -78.04215 36801 ft 453 kts 308°
2026-04-17 12:42 -0.38077 -78.06706 36542 ft 451 kts 308°
2026-04-17 12:42 -0.36165 -78.09189 36266 ft 450 kts 308°
2026-04-17 12:42 -0.34266 -78.11660 35894 ft 448 kts 308°
2026-04-17 12:43 -0.32407 -78.14100 35456 ft 445 kts 308°
2026-04-17 12:43 -0.30544 -78.16561 34998 ft 443 kts 308°
2026-04-17 12:43 -0.28697 -78.19004 34512 ft 439 kts 308°
2026-04-17 12:43 -0.26862 -78.21431 33986 ft 436 kts 308°
2026-04-17 12:44 -0.25037 -78.23846 33328 ft 433 kts 308°
2026-04-17 12:44 -0.23231 -78.26233 32660 ft 428 kts 307°
2026-04-17 12:44 -0.21444 -78.28594 32226 ft 424 kts 307°
2026-04-17 12:44 -0.19676 -78.30928 31398 ft 419 kts 307°
2026-04-17 12:45 -0.17924 -78.33241 30782 ft 416 kts 307°
2026-04-17 12:45 -0.16183 -78.35538 30129 ft 412 kts 307°
2026-04-17 12:45 -0.14487 -78.37773 29466 ft 407 kts 307°
2026-04-17 12:45 -0.12768 -78.40038 28834 ft 402 kts 307°
2026-04-17 12:46 -0.11109 -78.42223 28239 ft 397 kts 307°
2026-04-17 12:46 -0.09451 -78.44405 27636 ft 392 kts 307°
2026-04-17 12:46 -0.07810 -78.46565 27081 ft 388 kts 306°
2026-04-17 12:46 -0.06185 -78.48701 26502 ft 384 kts 306°
2026-04-17 12:47 -0.04576 -78.50817 25933 ft 380 kts 306°
2026-04-17 12:47 -0.02839 -78.52782 25305 ft 379 kts 319°
2026-04-17 12:47 -0.00614 -78.54150 24695 ft 375 kts 338°
2026-04-17 12:47 0.01859 -78.54796 24203 ft 371 kts 349°
2026-04-17 12:48 0.04419 -78.55147 23852 ft 371 kts 352°
2026-04-17 12:48 0.06974 -78.55405 23416 ft 368 kts 357°
2026-04-17 12:48 0.09509 -78.55103 22989 ft 367 kts 16°
2026-04-17 12:48 0.11788 -78.53986 22575 ft 366 kts 36°
2026-04-17 12:49 0.13556 -78.52192 22039 ft 362 kts 54°
2026-04-17 12:49 0.14622 -78.49933 21391 ft 358 kts 76°
2026-04-17 12:49 0.14821 -78.47472 20904 ft 358 kts 97°
2026-04-17 12:49 0.14151 -78.45112 20437 ft 353 kts 118°
2026-04-17 12:50 0.12727 -78.43187 19983 ft 348 kts 139°
2026-04-17 12:50 0.10713 -78.41906 19562 ft 342 kts 161°
2026-04-17 12:50 0.08406 -78.41481 19321 ft 337 kts 182°
2026-04-17 12:50 0.06135 -78.41936 19117 ft 333 kts 204°
2026-04-17 12:51 0.04189 -78.43148 18897 ft 331 kts 219°
2026-04-17 12:51 0.02457 -78.44657 18673 ft 330 kts 223°
2026-04-17 12:51 0.00777 -78.46208 18438 ft 328 kts 224°
2026-04-17 12:51 -0.00862 -78.47783 18391 ft 327 kts 225°
2026-04-17 12:52 -0.02457 -78.49369 18163 ft 329 kts 225°
2026-04-17 12:52 -0.04067 -78.50979 17805 ft 327 kts 225°
2026-04-17 12:52 -0.05822 -78.52398 17455 ft 326 kts 208°
2026-04-17 12:52 -0.07959 -78.53072 17104 ft 324 kts 186°
2026-04-17 12:53 -0.10185 -78.52861 16769 ft 324 kts 163°
2026-04-17 12:53 -0.12196 -78.51875 16446 ft 323 kts 151°
2026-04-17 12:53 -0.13548 -78.51263 16313 ft 322 kts 163°
2026-04-17 12:53 -0.15713 -78.50692 16139 ft 322 kts 166°
2026-04-17 12:54 -0.17875 -78.50136 15957 ft 321 kts 166°
2026-04-17 12:54 -0.20737 -78.49401 15723 ft 320 kts 168°
2026-04-17 12:54 -0.22931 -78.49070 15480 ft 319 kts 174°
2026-04-17 12:54 -0.25066 -78.48869 15244 ft 293 kts 175°
2026-04-17 12:55 -0.26361 -78.48758 15158 ft 272 kts 175°
2026-04-17 12:55 -0.28156 -78.48636 15038 ft 246 kts 178°
2026-04-17 12:55 -0.29822 -78.48564 14939 ft 236 kts 178°
2026-04-17 12:55 -0.31441 -78.48495 14840 ft 230 kts 178°
2026-04-17 12:56 -0.33034 -78.48419 14724 ft 229 kts 178°
2026-04-17 12:56 -0.34617 -78.48324 14615 ft 227 kts 173°
2026-04-17 12:56 -0.36614 -78.47720 14568 ft 228 kts 156°
2026-04-17 12:56 -0.37578 -78.47244 14561 ft 229 kts 152°
2026-04-17 12:57 -0.38923 -78.46396 14558 ft 229 kts 145°
2026-04-17 12:57 -0.40124 -78.45387 14571 ft 228 kts 137°
2026-04-17 12:57 -0.41094 -78.44139 14558 ft 229 kts 115°
2026-04-17 12:57 -0.41331 -78.42587 14553 ft 229 kts 84°
2026-04-17 12:58 -0.41015 -78.41022 14567 ft 230 kts 72°
2026-04-17 12:58 -0.40216 -78.39652 14499 ft 230 kts 44°
2026-04-17 12:58 -0.38899 -78.38773 14444 ft 230 kts 27°
2026-04-17 12:58 -0.37466 -78.38068 14328 ft 229 kts 25°
2026-04-17 12:59 -0.36060 -78.37407 14063 ft 218 kts 25°
2026-04-17 12:59 -0.34687 -78.36766 13443 ft 216 kts 25°
2026-04-17 12:59 -0.33348 -78.36143 12942 ft 206 kts 25°
2026-04-17 12:59 -0.32072 -78.35551 12311 ft 205 kts 25°
2026-04-17 13:00 -0.30755 -78.34983 11661 ft 210 kts 15°
2026-04-17 13:00 -0.29354 -78.34847 11316 ft 197 kts
2026-04-17 13:00 -0.27978 -78.34820 10978 ft 200 kts
2026-04-17 13:00 -0.26644 -78.34817 10605 ft 184 kts 358°
2026-04-17 13:01 -0.25388 -78.34882 10358 ft 179 kts 357°
2026-04-17 13:01 -0.24116 -78.34946 10108 ft 175 kts 357°
2026-04-17 13:01 -0.22977 -78.34997 9820 ft 161 kts 357°
2026-04-17 13:01 -0.21868 -78.35044 9613 ft 158 kts 358°
2026-04-17 13:02 -0.20772 -78.35091 9399 ft 157 kts 358°
2026-04-17 13:02 -0.19682 -78.35137 9173 ft 157 kts 358°
2026-04-17 13:02 -0.18593 -78.35183 8952 ft 156 kts 358°
2026-04-17 13:02 -0.17514 -78.35234 8678 ft 155 kts 357°
2026-04-17 13:03 -0.16444 -78.35283 8438 ft 152 kts 358°
2026-04-17 13:03 -0.15397 -78.35324 8191 ft 150 kts 358°
2026-04-17 13:03 -0.14350 -78.35367 7969 ft 151 kts 358°
2026-04-17 13:03 -0.13414 -78.35403 7897 ft 109 kts 357°
2026-04-17 13:04 -0.12854 -78.35428 7872 ft 57 kts 358°
2026-04-17 13:04 -0.12574 -78.35464 7858 ft 32 kts 337°
2026-04-17 13:04 -0.12427 -78.35551 7850 ft 15 kts 326°
2026-04-17 13:04 -0.12397 -78.35578 7849 ft 1 kts 295°
2026-04-17 13:05 -0.12398 -78.35583 7849 ft 1 kts 272°
2026-04-17 13:05 -0.12407 -78.35597 7849 ft 5 kts 233°
2026-04-17 13:05 -0.12469 -78.35612 7849 ft 13 kts 181°
2026-04-17 13:05 -0.12554 -78.35610 7850 ft 11 kts 178°
2026-04-17 13:06 -0.12626 -78.35608 7851 ft 10 kts 178°
2026-04-17 13:06 -0.12676 -78.35620 7851 ft 5 kts 219°
2026-04-17 13:06 -0.12694 -78.35650 7851 ft 6 kts 237°
2026-04-17 13:06 -0.12738 -78.35678 7850 ft 10 kts 194°
2026-04-17 13:07 -0.12812 -78.35678 7851 ft 11 kts 178°
2026-04-17 13:07 -0.12880 -78.35676 7852 ft 9 kts 178°
2026-04-17 13:07 -0.12925 -78.35678 7853 ft 2 kts 199°
2026-04-17 13:07 -0.12934 -78.35682 7853 ft 1 kts 205°
2026-04-17 13:08 -0.12948 -78.35691 7853 ft 1 kts 220°
2026-04-17 13:08 -0.12949 -78.35697 7853 ft 1 kts 251°
2026-04-17 13:08 -0.12949 -78.35727 7853 ft 6 kts 269°
2026-04-17 13:08 -0.12949 -78.35736 7853 ft 3 kts 269°
2026-04-17 13:09 -0.12949 -78.35750 7853 ft 0 kts 269°